,,,PA_Meas_PMT16A,,PR_Meas_QMR101_102,,RH_Meas_QMH101,,SR_Meas_QMS101,,TA_Meas_QMH101,,GenWind,,GenWind,
date,time,status,PA,status,PR,status,RH,status,SR,status,TA,status,DirAvg,status,SpdAvg,
2009-12-23, 00:00:05,VALID,1010.3,VALID,0,VALID,48.7667,VALID,0.105969,VALID,23.965,VALID,56,VALID,0.522656,
2009-12-23, 00:01:05,VALID,1010.25,VALID,0,VALID,48.7743,VALID,0,VALID,23.9668,VALID,56,VALID,0.253516,
2009-12-23, 00:02:05,VALID,1010.23,VALID,0,VALID,48.7591,VALID,0,VALID,23.9455,VALID,77,VALID,0.303906,
2009-12-23, 00:03:05,VALID,1010.17,VALID,0,VALID,48.7667,VALID,0,VALID,23.9473,VALID,358,VALID,0.251172,
2009-12-23, 00:04:04,VALID,1010.15,VALID,0,VALID,48.7743,VALID,0,VALID,23.9278,VALID,346,VALID,0.213281,
2009-12-23, 00:05:04,VALID,1010.11,VALID,0,VALID,48.7743,VALID,0.105969,VALID,23.926,VALID,346,VALID,0.188281,
2009-12-23, 00:06:04,VALID,1010.06,VALID,0,VALID,48.7514,VALID,0,VALID,23.9473,VALID,346,VALID,0.237891,
2009-12-23, 00:07:04,VALID,1010.02,VALID,0,VALID,48.7362,VALID,0,VALID,23.926,VALID,329,VALID,0.203125,
2009-12-23, 00:08:04,VALID,1010.03,VALID,0,VALID,48.7667,VALID,0,VALID,23.9473,VALID,235,VALID,0.503906,
2009-12-23, 00:09:04,VALID,1009.97,VALID,0,VALID,48.8277,VALID,0,VALID,23.8871,VALID,229,VALID,0.700391,
2009-12-23, 00:10:04,VALID,1009.95,VALID,0,VALID,48.7667,VALID,0,VALID,23.9668,VALID,228,VALID,0.695313,
2009-12-23, 00:11:04,VALID,1009.9,VALID,0,VALID,48.7667,VALID,0,VALID,23.9455,VALID,233,VALID,0.68125,
2009-12-23, 00:12:04,VALID,1009.87,VALID,0,VALID,48.7896,VALID,0.105969,VALID,23.926,VALID,231,VALID,0.567969,
2009-12-23, 00:13:04,VALID,1009.83,VALID,0,VALID,48.7819,VALID,0,VALID,23.926,VALID,230,VALID,0.078125,
2009-12-23, 00:14:04,VALID,1009.81,VALID,0,VALID,48.7438,VALID,0,VALID,23.9668,VALID,230,VALID,0,
2009-12-23, 00:15:04,VALID,1009.78,VALID,0,VALID,48.7362,VALID,0,VALID,23.9863,VALID,337,VALID,0,
2009-12-23, 00:16:04,VALID,1009.77,VALID,0,VALID,48.7362,VALID,0.105969,VALID,23.965,VALID,30,VALID,0,
2009-12-23, 00:17:04,VALID,1009.74,VALID,0,VALID,48.7133,VALID,0.105969,VALID,23.9845,VALID,32,VALID,0,
2009-12-23, 00:18:04,VALID,1009.74,VALID,0,VALID,48.7667,VALID,0,VALID,23.9455,VALID,32,VALID,0,
2009-12-23, 00:19:04,VALID,1009.7,VALID,0,VALID,48.7972,VALID,0,VALID,23.9668,VALID,59,VALID,0,
2009-12-23, 00:20:04,VALID,1009.7,VALID,0,VALID,48.7972,VALID,0,VALID,23.9455,VALID,59,VALID,0,
2009-12-23, 00:21:04,VALID,1009.71,VALID,0,VALID,48.7819,VALID,0,VALID,23.9668,VALID,59,VALID,0,
2009-12-23, 00:22:04,VALID,1009.68,VALID,0,VALID,48.7591,VALID,0,VALID,23.9668,VALID,59,VALID,0,
2009-12-23, 00:23:04,VALID,1009.66,VALID,0,VALID,48.7438,VALID,0,VALID,23.965,VALID,59,VALID,0,
2009-12-23, 00:24:04,VALID,1009.65,VALID,0,VALID,48.7667,VALID,0,VALID,23.9668,VALID,59,VALID,0,
2009-12-23, 00:25:04,VALID,1009.61,VALID,0,VALID,48.7743,VALID,0,VALID,23.926,VALID,59,VALID,0,
2009-12-23, 00:26:04,VALID,1009.58,VALID,0,VALID,48.7438,VALID,0,VALID,23.9455,VALID,59,VALID,0,
2009-12-23, 00:27:04,VALID,1009.56,VALID,0,VALID,48.7591,VALID,0.105969,VALID,23.9455,VALID,59,VALID,0,
2009-12-23, 00:28:04,VALID,1009.51,VALID,0,VALID,48.7438,VALID,0,VALID,23.9668,VALID,59,VALID,0,
2009-12-23, 00:29:04,VALID,1009.5,VALID,0,VALID,48.7514,VALID,0.105969,VALID,23.965,VALID,59,VALID,0,
2009-12-23, 00:30:04,VALID,1009.5,VALID,0,VALID,48.7209,VALID,0,VALID,23.9668,VALID,59,VALID,0,
2009-12-23, 00:31:04,VALID,1009.45,VALID,0,VALID,48.7209,VALID,0,VALID,23.9455,VALID,59,VALID,0,
2009-12-23, 00:32:04,VALID,1009.45,VALID,0,VALID,48.7209,VALID,0,VALID,23.9668,VALID,59,VALID,0,
2009-12-23, 00:33:04,VALID,1009.42,VALID,0,VALID,48.7057,VALID,0,VALID,23.9668,VALID,59,VALID,0,
2009-12-23, 00:34:04,VALID,1009.39,VALID,0,VALID,48.7286,VALID,0,VALID,23.9668,VALID,12,VALID,0,
2009-12-23, 00:35:04,VALID,1009.41,VALID,0,VALID,48.6981,VALID,0,VALID,23.9668,VALID,300,VALID,0,
2009-12-23, 00:36:04,VALID,1009.42,VALID,0,VALID,48.6981,VALID,0,VALID,23.9668,VALID,298,VALID,0,
2009-12-23, 00:37:04,VALID,1009.4,VALID,0,VALID,48.7438,VALID,0,VALID,23.9668,VALID,298,VALID,0,
2009-12-23, 00:38:04,VALID,1009.4,VALID,0,VALID,48.7286,VALID,0,VALID,23.9668,VALID,295,VALID,0,
2009-12-23, 00:39:04,VALID,1009.41,VALID,0,VALID,48.6904,VALID,0.105969,VALID,23.9668,VALID,294,VALID,0,
2009-12-23, 00:40:04,VALID,1009.46,VALID,0,VALID,48.6828,VALID,0,VALID,23.9863,VALID,294,VALID,0,
2009-12-23, 00:41:04,VALID,1009.44,VALID,0,VALID,48.6828,VALID,0,VALID,23.9455,VALID,294,VALID,0,
2009-12-23, 00:42:04,VALID,1009.47,VALID,0,VALID,48.7438,VALID,0,VALID,23.9473,VALID,294,VALID,0,
2009-12-23, 00:43:04,VALID,1009.47,VALID,0,VALID,48.7667,VALID,0,VALID,23.9473,VALID,329,VALID,0,
2009-12-23, 00:44:04,VALID,1009.46,VALID,0,VALID,48.8124,VALID,0,VALID,23.926,VALID,329,VALID,0,
2009-12-23, 00:45:04,VALID,1009.47,VALID,0,VALID,48.7667,VALID,0,VALID,23.9278,VALID,329,VALID,0,
2009-12-23, 00:46:04,VALID,1009.44,VALID,0,VALID,48.7667,VALID,0,VALID,23.9065,VALID,329,VALID,0,
2009-12-23, 00:47:04,VALID,1009.44,VALID,0,VALID,48.7819,VALID,0,VALID,23.9065,VALID,329,VALID,0,
2009-12-23, 00:48:04,VALID,1009.4,VALID,0,VALID,48.7667,VALID,0.105969,VALID,23.9084,VALID,329,VALID,0,
2009-12-23, 00:49:04,VALID,1009.36,VALID,0,VALID,48.7743,VALID,0,VALID,23.9278,VALID,226,VALID,0,
2009-12-23, 00:50:04,VALID,1009.35,VALID,0,VALID,48.7743,VALID,0,VALID,23.9278,VALID,227,VALID,0,
2009-12-23, 00:51:04,VALID,1009.32,VALID,0,VALID,48.7972,VALID,0,VALID,23.9084,VALID,232,VALID,0,
2009-12-23, 00:52:04,VALID,1009.33,VALID,0,VALID,48.8353,VALID,0,VALID,23.9084,VALID,229,VALID,0.785937,
2009-12-23, 00:53:04,VALID,1009.32,VALID,0,VALID,48.8201,VALID,0,VALID,23.9278,VALID,229,VALID,0.482812,
2009-12-23, 00:54:04,VALID,1009.36,VALID,0,VALID,48.7972,VALID,0,VALID,23.9668,VALID,229,VALID,0.316797,
2009-12-23, 00:55:04,VALID,1009.36,VALID,0,VALID,48.7591,VALID,0.105969,VALID,23.9473,VALID,229,VALID,0.323047,
2009-12-23, 00:56:04,VALID,1009.38,VALID,0,VALID,48.7591,VALID,0,VALID,23.9473,VALID,229,VALID,0.183594,
2009-12-23, 00:57:04,VALID,1009.37,VALID,0,VALID,48.7514,VALID,0,VALID,23.9668,VALID,229,VALID,0.11875,
2009-12-23, 00:58:04,VALID,1009.37,VALID,0,VALID,48.7133,VALID,0,VALID,23.9863,VALID,229,VALID,0,
2009-12-23, 00:59:04,VALID,1009.31,VALID,0,VALID,48.7438,VALID,0.105969,VALID,23.9863,VALID,229,VALID,0,
2009-12-23, 01:00:04,VALID,1009.27,VALID,0,VALID,48.7133,VALID,0,VALID,23.9863,VALID,229,VALID,0.025,
2009-12-23, 01:01:04,VALID,1009.27,VALID,0,VALID,48.7667,VALID,0,VALID,23.9668,VALID,229,VALID,0,
2009-12-23, 01:02:04,VALID,1009.24,VALID,0,VALID,48.7972,VALID,0,VALID,23.9473,VALID,229,VALID,0,
2009-12-23, 01:03:04,VALID,1009.2,VALID,0,VALID,48.7972,VALID,0,VALID,23.926,VALID,229,VALID,0,
2009-12-23, 01:04:04,VALID,1009.19,VALID,0,VALID,48.7819,VALID,0,VALID,23.9668,VALID,229,VALID,0,
2009-12-23, 01:05:04,VALID,1009.16,VALID,0,VALID,48.7972,VALID,0,VALID,23.9455,VALID,229,VALID,0,
2009-12-23, 01:06:04,VALID,1009.18,VALID,0,VALID,48.7438,VALID,0,VALID,23.9863,VALID,229,VALID,0,
2009-12-23, 01:07:04,VALID,1009.19,VALID,0,VALID,48.6981,VALID,0,VALID,24.0058,VALID,229,VALID,0,
2009-12-23, 01:08:04,VALID,1009.16,VALID,0,VALID,48.7286,VALID,0,VALID,23.9863,VALID,229,VALID,0,
2009-12-23, 01:09:04,VALID,1009.16,VALID,0,VALID,48.7133,VALID,0,VALID,23.9845,VALID,229,VALID,0,
2009-12-23, 01:10:04,VALID,1009.18,VALID,0,VALID,48.6981,VALID,0,VALID,24.0058,VALID,229,VALID,0,
2009-12-23, 01:11:04,VALID,1009.18,VALID,0,VALID,48.6599,VALID,0,VALID,24.0253,VALID,229,VALID,0,
2009-12-23, 01:12:04,VALID,1009.18,VALID,0,VALID,48.6676,VALID,0,VALID,24.0253,VALID,229,VALID,0,
2009-12-23, 01:13:04,VALID,1009.15,VALID,0,VALID,48.6294,VALID,0,VALID,24.0058,VALID,229,VALID,0,
2009-12-23, 01:14:04,VALID,1009.14,VALID,0,VALID,48.6142,VALID,0,VALID,24.004,VALID,229,VALID,0,
2009-12-23, 01:15:04,VALID,1009.16,VALID,0,VALID,48.6447,VALID,0,VALID,23.9863,VALID,333,VALID,0,
2009-12-23, 01:16:04,VALID,1009.15,VALID,0,VALID,48.6752,VALID,0.105969,VALID,23.9845,VALID,4,VALID,0,
2009-12-23, 01:17:04,VALID,1009.16,VALID,0,VALID,48.7057,VALID,0,VALID,23.9668,VALID,20,VALID,0,
2009-12-23, 01:18:04,VALID,1009.18,VALID,0,VALID,48.7362,VALID,0,VALID,23.9473,VALID,21,VALID,0,
2009-12-23, 01:19:04,VALID,1009.16,VALID,0,VALID,48.7209,VALID,0,VALID,23.9473,VALID,65,VALID,0.379297,
2009-12-23, 01:20:04,VALID,1009.15,VALID,0,VALID,48.6676,VALID,0.105969,VALID,23.9455,VALID,65,VALID,0.475,
2009-12-23, 01:21:04,VALID,1009.14,VALID,0,VALID,48.7057,VALID,0,VALID,23.9473,VALID,62,VALID,0.44375,
2009-12-23, 01:22:04,VALID,1009.1,VALID,0,VALID,48.6981,VALID,0.105969,VALID,23.9065,VALID,57,VALID,0.107031,
2009-12-23, 01:23:04,VALID,1009.14,VALID,0,VALID,48.7209,VALID,0.105969,VALID,23.9065,VALID,57,VALID,0,
2009-12-23, 01:24:04,VALID,1009.1,VALID,0,VALID,48.7209,VALID,0,VALID,23.9084,VALID,57,VALID,0.0132813,
2009-12-23, 01:25:04,VALID,1009.1,VALID,0,VALID,48.7133,VALID,0,VALID,23.8871,VALID,56,VALID,0.105469,
2009-12-23, 01:26:04,VALID,1009.09,VALID,0,VALID,48.6676,VALID,0,VALID,23.9084,VALID,56,VALID,0.0839844,
2009-12-23, 01:27:04,VALID,1009.07,VALID,0,VALID,48.6828,VALID,0.105969,VALID,23.8871,VALID,56,VALID,0,
2009-12-23, 01:28:04,VALID,1009.03,VALID,0,VALID,48.6523,VALID,0.105969,VALID,23.9065,VALID,56,VALID,0.0273438,
2009-12-23, 01:29:04,VALID,1009,VALID,0,VALID,48.6066,VALID,0.105969,VALID,23.9473,VALID,56,VALID,0,
2009-12-23, 01:30:04,VALID,1008.96,VALID,0,VALID,48.6294,VALID,0,VALID,23.9278,VALID,56,VALID,0.0015625,
2009-12-23, 01:31:04,VALID,1008.92,VALID,0,VALID,48.6218,VALID,0,VALID,23.8871,VALID,56,VALID,0.311719,
2009-12-23, 01:32:04,VALID,1008.89,VALID,0,VALID,48.6294,VALID,0,VALID,23.9278,VALID,56,VALID,0,
2009-12-23, 01:33:04,VALID,1008.84,VALID,0,VALID,48.6066,VALID,0,VALID,23.9473,VALID,56,VALID,0.267188,
2009-12-23, 01:34:04,VALID,1008.81,VALID,0,VALID,48.5684,VALID,0,VALID,23.9473,VALID,56,VALID,0,
2009-12-23, 01:35:04,VALID,1008.77,VALID,0,VALID,48.5608,VALID,0,VALID,23.9668,VALID,56,VALID,0,
2009-12-23, 01:36:04,VALID,1008.77,VALID,0,VALID,48.5532,VALID,0,VALID,23.9668,VALID,56,VALID,0,
2009-12-23, 01:37:04,VALID,1008.74,VALID,0,VALID,48.5532,VALID,0.105969,VALID,23.9668,VALID,153,VALID,0,
2009-12-23, 01:38:04,VALID,1008.74,VALID,0,VALID,48.5379,VALID,0,VALID,23.9863,VALID,153,VALID,0,
2009-12-23, 01:39:04,VALID,1008.72,VALID,0,VALID,48.5684,VALID,0.105969,VALID,23.9668,VALID,153,VALID,0,
2009-12-23, 01:40:04,VALID,1008.73,VALID,0,VALID,48.5532,VALID,0.105969,VALID,23.965,VALID,153,VALID,0,
2009-12-23, 01:41:04,VALID,1008.71,VALID,0,VALID,48.5455,VALID,0.105969,VALID,23.965,VALID,153,VALID,0,
2009-12-23, 01:42:04,VALID,1008.72,VALID,0,VALID,48.5532,VALID,0,VALID,23.9455,VALID,8,VALID,0,
2009-12-23, 01:43:04,VALID,1008.72,VALID,0,VALID,48.576,VALID,0.105969,VALID,23.9455,VALID,11,VALID,0,
2009-12-23, 01:44:04,VALID,1008.71,VALID,0,VALID,48.5989,VALID,0.105969,VALID,23.926,VALID,12,VALID,0,
2009-12-23, 01:45:04,VALID,1008.71,VALID,0,VALID,48.6294,VALID,0,VALID,23.9278,VALID,12,VALID,0,
2009-12-23, 01:46:04,VALID,1008.7,VALID,0,VALID,48.6066,VALID,0,VALID,23.9473,VALID,12,VALID,0,
2009-12-23, 01:47:04,VALID,1008.73,VALID,0,VALID,48.5913,VALID,0,VALID,23.926,VALID,12,VALID,0,
2009-12-23, 01:48:04,VALID,1008.7,VALID,0,VALID,48.5913,VALID,0,VALID,23.926,VALID,12,VALID,0,
2009-12-23, 01:49:04,VALID,1008.73,VALID,0,VALID,48.5989,VALID,0,VALID,23.9278,VALID,12,VALID,0,
2009-12-23, 01:50:04,VALID,1008.72,VALID,0,VALID,48.5837,VALID,0,VALID,23.9278,VALID,45,VALID,0,
2009-12-23, 01:51:04,VALID,1008.7,VALID,0,VALID,48.576,VALID,0,VALID,23.926,VALID,80,VALID,0,
2009-12-23, 01:52:04,VALID,1008.68,VALID,0,VALID,48.5684,VALID,0,VALID,23.9473,VALID,87,VALID,0,
2009-12-23, 01:53:04,VALID,1008.7,VALID,0,VALID,48.5532,VALID,0,VALID,23.926,VALID,87,VALID,0,
2009-12-23, 01:54:04,VALID,1008.69,VALID,0,VALID,48.576,VALID,0,VALID,23.9473,VALID,85,VALID,0,
2009-12-23, 01:55:04,VALID,1008.7,VALID,0,VALID,48.5608,VALID,0,VALID,23.9473,VALID,85,VALID,0,
2009-12-23, 01:56:04,VALID,1008.72,VALID,0,VALID,48.576,VALID,0,VALID,23.9473,VALID,85,VALID,0,
2009-12-23, 01:57:04,VALID,1008.73,VALID,0,VALID,48.5532,VALID,0.105969,VALID,23.926,VALID,85,VALID,0,
2009-12-23, 01:58:04,VALID,1008.74,VALID,0,VALID,48.515,VALID,0,VALID,23.9473,VALID,70,VALID,0,
2009-12-23, 01:59:04,VALID,1008.7,VALID,0,VALID,48.5303,VALID,0,VALID,23.9473,VALID,60,VALID,0,
2009-12-23, 02:00:04,VALID,1008.66,VALID,0,VALID,48.5532,VALID,0,VALID,23.9473,VALID,60,VALID,0,
2009-12-23, 02:01:04,VALID,1008.67,VALID,0,VALID,48.5455,VALID,0,VALID,23.9278,VALID,81,VALID,0.960547,
2009-12-23, 02:02:04,VALID,1008.69,VALID,0,VALID,48.5303,VALID,0,VALID,23.9473,VALID,79,VALID,1.04375,
2009-12-23, 02:03:04,VALID,1008.58,VALID,0,VALID,48.6066,VALID,0,VALID,23.9084,VALID,82,VALID,0.99375,
2009-12-23, 02:04:04,VALID,1008.54,VALID,0,VALID,48.6142,VALID,0,VALID,23.9278,VALID,62,VALID,0.512109,
2009-12-23, 02:05:04,VALID,1008.53,VALID,0,VALID,48.6371,VALID,0,VALID,23.9084,VALID,59,VALID,0.774219,
2009-12-23, 02:06:04,VALID,1008.52,VALID,0,VALID,48.7133,VALID,0,VALID,23.8889,VALID,100,VALID,1.15859,
2009-12-23, 02:07:04,VALID,1008.5,VALID,0,VALID,48.7209,VALID,0,VALID,23.8694,VALID,69,VALID,1.03789,
2009-12-23, 02:08:04,VALID,1008.48,VALID,0,VALID,48.7133,VALID,0,VALID,23.8676,VALID,61,VALID,0.813281,
2009-12-23, 02:09:04,VALID,1008.49,VALID,0,VALID,48.7362,VALID,0,VALID,23.8694,VALID,68,VALID,1.28711,
2009-12-23, 02:10:04,VALID,1008.46,VALID,0,VALID,48.7896,VALID,0,VALID,23.8499,VALID,38,VALID,1.00781,
2009-12-23, 02:11:04,VALID,1008.48,VALID,0,VALID,48.8277,VALID,0,VALID,23.7896,VALID,60,VALID,1.16328,
2009-12-23, 02:12:04,VALID,1008.43,VALID,0,VALID,48.8429,VALID,0.105969,VALID,23.7896,VALID,54,VALID,0.528906,
2009-12-23, 02:13:04,VALID,1008.41,VALID,0,VALID,48.8658,VALID,0,VALID,23.7914,VALID,82,VALID,0.725781,
2009-12-23, 02:14:04,VALID,1008.41,VALID,0,VALID,48.8811,VALID,0,VALID,23.7507,VALID,39,VALID,0.814062,
2009-12-23, 02:15:04,VALID,1008.39,VALID,0,VALID,48.9116,VALID,0,VALID,23.7312,VALID,58,VALID,1.66953,
2009-12-23, 02:16:04,VALID,1008.37,VALID,0,VALID,48.9421,VALID,0,VALID,23.7525,VALID,76,VALID,1.01719,
2009-12-23, 02:17:04,VALID,1008.36,VALID,0,VALID,48.9192,VALID,0,VALID,23.733,VALID,88,VALID,1.0043,
2009-12-23, 02:18:04,VALID,1008.36,VALID,0,VALID,48.9497,VALID,0,VALID,23.733,VALID,27,VALID,0.917578,
2009-12-23, 02:19:04,VALID,1008.37,VALID,0,VALID,48.9726,VALID,0,VALID,23.694,VALID,72,VALID,1.08594,
2009-12-23, 02:20:04,VALID,1008.41,VALID,0,VALID,49.0031,VALID,0,VALID,23.694,VALID,49,VALID,0.494922,
2009-12-23, 02:21:04,VALID,1008.42,VALID,0,VALID,48.9955,VALID,0,VALID,23.6727,VALID,46,VALID,0.650781,
2009-12-23, 02:22:04,VALID,1008.41,VALID,0,VALID,49.0183,VALID,0,VALID,23.6745,VALID,60,VALID,0.857031,
2009-12-23, 02:23:04,VALID,1008.42,VALID,0,VALID,49.0488,VALID,0,VALID,23.6532,VALID,66,VALID,0.494141,
2009-12-23, 02:24:04,VALID,1008.38,VALID,0,VALID,49.0412,VALID,0,VALID,23.6745,VALID,60,VALID,0.973828,
2009-12-23, 02:25:04,VALID,1008.38,VALID,0,VALID,49.0336,VALID,0,VALID,23.6745,VALID,97,VALID,0.610156,
2009-12-23, 02:26:04,VALID,1008.35,VALID,0,VALID,49.0565,VALID,0.105969,VALID,23.6532,VALID,72,VALID,0.501562,
2009-12-23, 02:27:04,VALID,1008.36,VALID,0,VALID,49.0717,VALID,0.105969,VALID,23.6338,VALID,76,VALID,0.749219,
2009-12-23, 02:28:04,VALID,1008.36,VALID,0,VALID,49.0946,VALID,0.105969,VALID,23.6338,VALID,79,VALID,0.716797,
2009-12-23, 02:29:04,VALID,1008.42,VALID,0,VALID,49.1175,VALID,0.105969,VALID,23.6143,VALID,78,VALID,0.991406,
2009-12-23, 02:30:04,VALID,1008.46,VALID,0,VALID,49.0717,VALID,0.105969,VALID,23.6338,VALID,96,VALID,1.00469,
2009-12-23, 02:31:04,VALID,1008.5,VALID,0,VALID,49.1099,VALID,0,VALID,23.6338,VALID,85,VALID,0.801172,
2009-12-23, 02:32:04,VALID,1008.48,VALID,0,VALID,49.0717,VALID,0,VALID,23.6338,VALID,106,VALID,0.667969,
2009-12-23, 02:33:04,VALID,1008.48,VALID,0,VALID,49.1022,VALID,0,VALID,23.6532,VALID,97,VALID,0.574219,
2009-12-23, 02:34:04,VALID,1008.45,VALID,0,VALID,49.0717,VALID,0,VALID,23.6745,VALID,97,VALID,0,
2009-12-23, 02:35:04,VALID,1008.42,VALID,0,VALID,49.0946,VALID,0.105969,VALID,23.6532,VALID,97,VALID,0.090625,
2009-12-23, 02:36:04,VALID,1008.44,VALID,0,VALID,49.148,VALID,0,VALID,23.655,VALID,97,VALID,0,
2009-12-23, 02:37:04,VALID,1008.4,VALID,0,VALID,49.1404,VALID,0,VALID,23.6356,VALID,97,VALID,0,
2009-12-23, 02:38:04,VALID,1008.37,VALID,0,VALID,49.1556,VALID,0,VALID,23.655,VALID,97,VALID,0,
2009-12-23, 02:39:04,VALID,1008.37,VALID,0,VALID,49.148,VALID,0.105969,VALID,23.655,VALID,50,VALID,0,
2009-12-23, 02:40:04,VALID,1008.38,VALID,0,VALID,49.1251,VALID,0.105969,VALID,23.655,VALID,358,VALID,0,
2009-12-23, 02:41:04,VALID,1008.38,VALID,0,VALID,49.1556,VALID,0,VALID,23.5948,VALID,326,VALID,0.548437,
2009-12-23, 02:42:04,VALID,1008.4,VALID,0,VALID,49.2319,VALID,0.105969,VALID,23.5948,VALID,323,VALID,0.3875,
2009-12-23, 02:43:04,VALID,1008.41,VALID,0,VALID,49.2471,VALID,0.105969,VALID,23.6161,VALID,321,VALID,0.333984,
2009-12-23, 02:44:04,VALID,1008.42,VALID,0,VALID,49.2319,VALID,0.105969,VALID,23.5753,VALID,321,VALID,0.459375,
2009-12-23, 02:45:04,VALID,1008.42,VALID,0,VALID,49.27,VALID,0,VALID,23.5558,VALID,321,VALID,0.301953,
2009-12-23, 02:46:04,VALID,1008.44,VALID,0,VALID,49.2624,VALID,0.105969,VALID,23.5771,VALID,321,VALID,0,
2009-12-23, 02:47:04,VALID,1008.48,VALID,0,VALID,49.3005,VALID,0.105969,VALID,23.5558,VALID,321,VALID,0,
2009-12-23, 02:48:04,VALID,1008.53,VALID,0,VALID,49.3157,VALID,0,VALID,23.5576,VALID,321,VALID,0.00429688,
2009-12-23, 02:49:04,VALID,1008.55,VALID,0,VALID,49.2852,VALID,0.105969,VALID,23.5753,VALID,321,VALID,0.415625,
2009-12-23, 02:50:04,VALID,1008.58,VALID,0,VALID,49.2319,VALID,0,VALID,23.6161,VALID,321,VALID,0.708203,
2009-12-23, 02:51:04,VALID,1008.59,VALID,0,VALID,49.209,VALID,0,VALID,23.6161,VALID,321,VALID,0.570313,
2009-12-23, 02:52:04,VALID,1008.58,VALID,0,VALID,49.2014,VALID,0.105969,VALID,23.6143,VALID,321,VALID,0.496875,
2009-12-23, 02:53:04,VALID,1008.57,VALID,0,VALID,49.2166,VALID,0,VALID,23.5948,VALID,321,VALID,0.289453,
2009-12-23, 02:54:04,VALID,1008.52,VALID,0,VALID,49.1861,VALID,0.105969,VALID,23.6143,VALID,321,VALID,0,
2009-12-23, 02:55:04,VALID,1008.49,VALID,0,VALID,49.1709,VALID,0.105969,VALID,23.6338,VALID,321,VALID,0,
2009-12-23, 02:56:04,VALID,1008.44,VALID,0,VALID,49.1022,VALID,0.105969,VALID,23.6532,VALID,321,VALID,0,
2009-12-23, 02:57:04,VALID,1008.43,VALID,0,VALID,49.1251,VALID,0,VALID,23.6532,VALID,321,VALID,0,
2009-12-23, 02:58:04,VALID,1008.39,VALID,0,VALID,49.1327,VALID,0,VALID,23.6338,VALID,321,VALID,0,
2009-12-23, 02:59:04,VALID,1008.41,VALID,0,VALID,49.1251,VALID,0.105969,VALID,23.6745,VALID,321,VALID,0,
2009-12-23, 03:00:04,VALID,1008.41,VALID,0,VALID,49.1175,VALID,0.105969,VALID,23.6532,VALID,321,VALID,0,
2009-12-23, 03:01:04,VALID,1008.41,VALID,0,VALID,49.0946,VALID,0.105969,VALID,23.6532,VALID,321,VALID,0,
2009-12-23, 03:02:04,VALID,1008.41,VALID,0,VALID,49.0641,VALID,0.105969,VALID,23.6727,VALID,321,VALID,0,
2009-12-23, 03:03:04,VALID,1008.4,VALID,0,VALID,49.0793,VALID,0.105969,VALID,23.6745,VALID,321,VALID,0,
2009-12-23, 03:04:04,VALID,1008.4,VALID,0,VALID,49.0793,VALID,0.105969,VALID,23.6727,VALID,321,VALID,0,
2009-12-23, 03:05:04,VALID,1008.42,VALID,0,VALID,49.0717,VALID,0.105969,VALID,23.6532,VALID,321,VALID,0,
2009-12-23, 03:06:04,VALID,1008.43,VALID,0,VALID,49.0793,VALID,0,VALID,23.694,VALID,321,VALID,0,
2009-12-23, 03:07:04,VALID,1008.43,VALID,0,VALID,49.1022,VALID,0.105969,VALID,23.6532,VALID,321,VALID,0,
2009-12-23, 03:08:04,VALID,1008.48,VALID,0,VALID,49.0488,VALID,0,VALID,23.6532,VALID,321,VALID,0,
2009-12-23, 03:09:04,VALID,1008.54,VALID,0,VALID,49.0793,VALID,0,VALID,23.6745,VALID,321,VALID,0,
2009-12-23, 03:10:04,VALID,1008.57,VALID,0,VALID,49.0793,VALID,0,VALID,23.6338,VALID,321,VALID,0,
2009-12-23, 03:11:04,VALID,1008.62,VALID,0,VALID,49.087,VALID,0,VALID,23.655,VALID,321,VALID,0,
2009-12-23, 03:12:04,VALID,1008.59,VALID,0,VALID,49.087,VALID,0.105969,VALID,23.6338,VALID,321,VALID,0,
2009-12-23, 03:13:04,VALID,1008.59,VALID,0,VALID,49.0641,VALID,0.105969,VALID,23.6338,VALID,321,VALID,0,
2009-12-23, 03:14:04,VALID,1008.57,VALID,0,VALID,49.0641,VALID,0.105969,VALID,23.6338,VALID,321,VALID,0,
2009-12-23, 03:15:04,VALID,1008.57,VALID,0,VALID,49.1327,VALID,0.105969,VALID,23.6356,VALID,321,VALID,0,
2009-12-23, 03:16:04,VALID,1008.53,VALID,0,VALID,49.1175,VALID,0.105969,VALID,23.5948,VALID,321,VALID,0,
2009-12-23, 03:17:04,VALID,1008.52,VALID,0,VALID,49.1251,VALID,0.105969,VALID,23.5948,VALID,321,VALID,0,
2009-12-23, 03:18:04,VALID,1008.54,VALID,0,VALID,49.1327,VALID,0.105969,VALID,23.6161,VALID,321,VALID,0,
2009-12-23, 03:19:04,VALID,1008.56,VALID,0,VALID,49.0565,VALID,0.105969,VALID,23.6356,VALID,348,VALID,0,
2009-12-23, 03:20:04,VALID,1008.56,VALID,0,VALID,49.1022,VALID,0,VALID,23.6161,VALID,96,VALID,0.498828,
2009-12-23, 03:21:04,VALID,1008.56,VALID,0,VALID,49.1022,VALID,0,VALID,23.6161,VALID,95,VALID,0.841797,
2009-12-23, 03:22:04,VALID,1008.57,VALID,0,VALID,49.0793,VALID,0.105969,VALID,23.6338,VALID,71,VALID,0.501953,
2009-12-23, 03:23:04,VALID,1008.55,VALID,0,VALID,49.0183,VALID,0,VALID,23.6532,VALID,62,VALID,0.306641,
2009-12-23, 03:24:04,VALID,1008.56,VALID,0,VALID,48.9802,VALID,0,VALID,23.6727,VALID,77,VALID,0.437891,
2009-12-23, 03:25:04,VALID,1008.56,VALID,0,VALID,49.0183,VALID,0,VALID,23.6727,VALID,107,VALID,0.40625,
2009-12-23, 03:26:04,VALID,1008.55,VALID,0,VALID,49.0107,VALID,0,VALID,23.7135,VALID,107,VALID,0.578125,
2009-12-23, 03:27:04,VALID,1008.56,VALID,0,VALID,48.9878,VALID,0,VALID,23.733,VALID,101,VALID,0.466406,
2009-12-23, 03:28:04,VALID,1008.53,VALID,0,VALID,48.9802,VALID,0.105969,VALID,23.7525,VALID,12,VALID,0.495703,
2009-12-23, 03:29:04,VALID,1008.52,VALID,0,VALID,49.0412,VALID,0,VALID,23.6922,VALID,345,VALID,0.572266,
2009-12-23, 03:30:04,VALID,1008.5,VALID,0,VALID,49.0565,VALID,0,VALID,23.6922,VALID,345,VALID,0.187891,
2009-12-23, 03:31:04,VALID,1008.53,VALID,0,VALID,49.0641,VALID,0.105969,VALID,23.7135,VALID,345,VALID,0.167187,
2009-12-23, 03:32:04,VALID,1008.5,VALID,0,VALID,49.026,VALID,0.105969,VALID,23.6922,VALID,345,VALID,0,
2009-12-23, 03:33:04,VALID,1008.52,VALID,0,VALID,49.0031,VALID,0,VALID,23.7117,VALID,345,VALID,0,
2009-12-23, 03:34:04,VALID,1008.53,VALID,0,VALID,49.026,VALID,0,VALID,23.7135,VALID,330,VALID,0.218359,
2009-12-23, 03:35:04,VALID,1008.51,VALID,0,VALID,48.9116,VALID,0.105969,VALID,23.6922,VALID,330,VALID,0,
2009-12-23, 03:36:04,VALID,1008.53,VALID,0,VALID,48.8353,VALID,0.105969,VALID,23.7135,VALID,330,VALID,0,
2009-12-23, 03:37:04,VALID,1008.53,VALID,0,VALID,48.8277,VALID,0.105969,VALID,23.6922,VALID,330,VALID,0,
2009-12-23, 03:38:04,VALID,1008.53,VALID,0,VALID,48.8887,VALID,0.105969,VALID,23.6727,VALID,12,VALID,0.164844,
2009-12-23, 03:39:04,VALID,1008.53,VALID,0,VALID,48.8735,VALID,0.105969,VALID,23.6727,VALID,12,VALID,0,
2009-12-23, 03:40:04,VALID,1008.55,VALID,0,VALID,48.9192,VALID,0.105969,VALID,23.694,VALID,105,VALID,0.634766,
2009-12-23, 03:41:04,VALID,1008.59,VALID,0,VALID,49.0183,VALID,0.105969,VALID,23.6727,VALID,104,VALID,0.576563,
2009-12-23, 03:42:04,VALID,1008.64,VALID,0,VALID,48.9878,VALID,0,VALID,23.694,VALID,103,VALID,0.16875,
2009-12-23, 03:43:04,VALID,1008.67,VALID,0,VALID,48.9878,VALID,0.105969,VALID,23.6727,VALID,103,VALID,0.435156,
2009-12-23, 03:44:04,VALID,1008.72,VALID,0,VALID,48.965,VALID,0.105969,VALID,23.6922,VALID,121,VALID,0.873828,
2009-12-23, 03:45:04,VALID,1008.75,VALID,0,VALID,48.9726,VALID,0,VALID,23.733,VALID,116,VALID,1.26445,
2009-12-23, 03:46:04,VALID,1008.8,VALID,0,VALID,48.9497,VALID,0,VALID,23.7701,VALID,104,VALID,1.27461,
2009-12-23, 03:47:04,VALID,1008.82,VALID,0,VALID,48.9573,VALID,0.105969,VALID,23.7701,VALID,107,VALID,1.15039,
2009-12-23, 03:48:04,VALID,1008.89,VALID,0,VALID,48.9192,VALID,0.105969,VALID,23.7896,VALID,120,VALID,1.48672,
2009-12-23, 03:49:04,VALID,1008.92,VALID,0,VALID,48.9345,VALID,0,VALID,23.8091,VALID,117,VALID,1.47656,